[Date Prev][Date Next][Thread Prev][Thread Next][Date Index][Thread Index]

[jamsat-news:1703] jas2info #273


========================   最新情報   ==============================

        Last updated  7May2002  18:40(JST)   #273

====================================================================
   
1)アマチュア通信衛星情報、FOシリーズの軌道要素、テレメトリ、QSOの
   状況等をまとめてみました.
   
 FO−29の2002年5月 7日(火)の16:44(JST)のパスでは
JARLのホームページのとうりアナログ運用でした。 今日までの観測した
テレメトリーと最終の分析結果を報告しておきます。

AS28247C  07May2002
16:44-16:51(JST)
AOS   MEL  LOS  Elev
 38    86  135  10.5
Freq. 435.798-.790MHz
                                                         5F 8F 8TE S 91 87 
HI HI AE 07 88 55 00 D4 9B F7 09 3E 4B 6A 67 54 90 8E 9D 66 8F 8B 8F 91 87 
HI HI AE 07 88 55 00 D4 9A F7 09 0E 4D 6E 66 56 90 8D 9A 7E 8F 8B 8F 91 87 
HI HI AE 07 88 55 00 D4 9A F7 09 0E 4E 72 67 56 90 8D 9A 89 8F 8B 8F 91 87 
HI HI AE 07 88 55 00 D4 9A F7 09 0E 50 77 68 53 90 8E 9B 88 8F 8B 8F 91 87 
HI HI AE 07 88 55 00 D4 9A F7 09 0E 52 7B 66 55 8F 8D 9A 81 8F 8B 8F 90 87 
HI HI AE 07 78 55 00 D4 9A F7 09 0E 53 7F 69 54 90 8D 9A 8A 6F 8C 8F 90 87 
HI HI AE 07 88 55 00 D4 9A F7 09 0E 55 83 6A 53 90 6D 9A 75 8F 8C 8F 90 87 
HI HI AE 07 88 55 00 D4 9A F7 09 0E 56 87 6A 51 90 8E 9B 5C 8F 8C 8F 90 87 
HI HI AE 07 88 55 00 D4 9A F7 09 0C 57 70 6E 56 8A 8C 9E 5F 91 8C 8F 8F 87 

AS278167C  1May2002
18:35-18:54(JST)
AOS   MEL  LOS  Elev
 10   287  199  77.4
Freq. 435.804-.786MHz

HI HI AE 07 88 55 00 D4 00 00 09 00 36 40 6D 51 90 8D 9A 67 92 93 8F 8B 89 
HI HI AE 07 88 55 00 D4 00 00 09 00 38 3E 6A 52 90 8D 9A 79 92 93 8F 8B 89 
HI HI AE 07 88 55 00 D4 00 00 09 00 39 3F 69 53 90 8D 9A 84 92 93 8F 8B 89 
HI HI AE 07 88 55 00 D4 00 00 09 00 3A 3F 68 54 90 8D 9A 88 92 93 8F 8B 88 
HI HI AE 07 88 55 00 D4 00 00 09 00 3B 3F 6A 52 90 8D 9A 7B 92 93 8F 8B 88 
HI HI AE 07 88 55 00 D4 00 00 09 00 3B 40 6D 51 91 8D 9B 6F 91 93 8F 8A 88 
HI HI AE 07 88 55 00 D4 00 00 09 00 3C 42 6F 50 91 8E 9B 74 91 93 8F 8A 88 
HI HI AE 07 88 55 00 D4 00 00 09 00 3C 43 72 4E 92 8E 9C 63 91 93 8F 8A 88 
HI HI AE 07 88 55 00 D4 00 00 09 00 3D 45 74 4E 93 8F 9C 74 91 93 8F 8A 88 
HI HI AE 07 88 55 00 D4 00 00 09 00 3C 45 75 5E 8F 8D 9C 75 91 93 8F 8A 88 
HI HI AE 07 88 55 00 D4 00 00 09 00 3D 48 78 5F 91 8E B0 65 91 93 8F 8A 88 
HI HI AE 07 88 55 00 D4 00 00 09 00 3D 4A 79 4B 93 8E B0 73 91 93 8F 8A 88 
HI HI AE 07 88 55 00 D4 00 00 09 00 3D 4C 79 4A 93 8F B0 5F 91 93 8F 8A 88 
HI HI AE 07 88 55 00 D4 00 00 09 00 3D 4E 7A 4C 93 8F 9D 66 91 93 8F 89 88 
HI HI AE 07 88 55 00 D4 00 00 09 00 3E 50 79 4A 93 8F 9D 84 91 93 8F 89 88 
HI HI AE 07 88 55 00 D4 00 00 09 00 3E 51 78 4B 93 8F B0 65 91 93 8F 89 88 
HI HI AE 07 88 55 00 D4 00 00 09 00 3E 53 78 4B 93 8F 9D 74 91 93 8F 89 88 
HI HI AE 07 88 55 00 D4 00 00 09 00 3E 54 78 4A 93 8F 9D 69 91 93 8F 89 88 
HI HI AE 07 88 55 00 D4 00 00 09 00 3F 55 78 4A 92 8F B0 63 91 93 8E 89 88 
HI HI AE 07 88 55 00 D4 00 00 09 00 3F 56 78 4B 93 8E B0 61 91 93 8E 89 88 
HI HI AE 07 88 55 00 D4 00 00 09 00 40 56 79 5F 91 8E B0 6A 91 93 8E 89 88 
HI HI AE 07 88 55 00 D4 00 00 09 00 39 54 78 5E 91 8E B0 &B 91 93 8E 89 88 

AS28153C  30Apr2002
17:47-18:04(JST)
AOS   MEL  LOS  Elev
 20    97  174  43.7
Freq. 435.803-.786MHz

HI HI AE 07 88 55 00 D4 24 6B 09 02 9F 9E 48 63 88 86 92 77 8B 8A 8F 90 85 
HI HI AE 07 88 55 00 D4 24 6B 09 02 98      8 86 92 65 8C 8A 8F 90 85 
HI HI AE 07 88 55 00 D4 24 6B 09 02 9D 73 49 63 88 86 92 66 8C 8A 90 90 85 
HI HI AE 07 88 55 00 D4 24 6B 09 02 9B 6E 4B 63 88 86 92 68 8B 8A 90 90 85 
HI HI AE 07 88 55 00 D4 24 6B 09 02 99 B7 4B 63 88 85 92 7C 8C 8A 90 90 85 
HI HI AE 07 88 55 00 D4 24 6B 09 02 97 65 4B 62 88 86 92 6E 8C 8B 90 90 85 
HI HI AE 07 88 55 00 D4 24 6B 09 02 94 61 4B 62 88 86 92 7C 8C 8B 90 90 86 
HI HI AE 07 88 55 00 D4 24 6B 09 22 90 5D 51 5F 88 86 92 7B 8C 8D 90 8F 85 
HI HI AE 07 88 55 00 D4 24 6B 09 02 8D 5A 56 5D 88 86 92 9E 8C 8B 90 8F 85 
HI HI AE 07 88 55 00 D4 24 6B 09 02 89 57 57 5C 88 86 93 84 8C 8B 90 8F 85 
HI HI AE 07 88 55 00 D4 24 6B 09 02 85 54 57 5C 88 86 93 84 8C 8B 90 8F 85 
HI Hi AE 07 88 55 O0 D4 24 6B 09 02 83 51 57 5C 88 86 92 74 8C 8B 90 8F 86 
HI HI AE 07 88 55 00 D4 24 5B 09 02    51 57 5C 88 86 93 64 8C 8B 90 8F 86 
HI HI AE 07 88 55 00 D4 24 6B 09 02    51 57 5C 88 86 93 65 8C 8C 90 8F 85 
HI HI AE 07 88 55 00 D4 24 6B 09 02 78 51 57 5C 88 86 92 71 8C 7C 90 8F 85
HI HI AE 07 88 55 00 D4 24 6B 09 02    55 58 5C 88 86 92 6D 8C 8C 90 8F 86 
HI HI AE 07 88 55 00 D4 24 6B 09 02 73 48 57 5C 88 86 92 7B 8C 8C 90 8F 86 
HI HI AE 07 88 55 00 D4 24 6B 09 02 72 47 55 5D 88 86 92 7Z 8C 8C 90 8F 86 
HI HI AE 07 88 55 00 D4 24 6B 09 02 70 46 54 5D 88 86 92 90 8D 8C 90 8F 86 
HI HI AE 07 88 55 00 D4 24 6B 09 02 70 46 53 5D 88 86 92 90 8D 8C 90 8F 86
HI HI AE 07 88 55 00 D4 24 6B 09 03 6F 45 53 5F 88 86 92 8B 8D 8C 8F 8F 86 
HI HI AE 07 88 55 00 D4 24 6B 09 02 6F 44 53 5E 88 86 92 7F 8D 8C 8F 8F 86
HI HI AE 07 88 55 00 D4 24 6B 09 02 73 44 53    88 86 92 74 8D 8C 8F 8F 86 


 
------------------------ FO-29の軌道要素 ------------------------------        
 
  ■ 軌道要素1:「jamsat−keps:1099」より         
          SB KEPS @ AMSAT  $ORB02122.N
          2Line Orbital Elements 02122.AMSAT

HR AMSAT ORBITAL ELEMENTS FOR AMATEUR SATELLITES IN NASA FORMAT
FROM WA5QGD FORT WORTH,TX May 2, 2002
SEND SUBSCRIBE/UNSUBSCRIBE TO majordomo@amsat.org ONLY
BID: ORB02122.N

 DECODE 2-LINE ELSETS WITH THE FOLLOWING KEY:
 1 AAAAAU 00  0  0 BBBBB.BBBBBBBB  .CCCCCCCC  00000-0  00000-0 0  DDDZ
 2 AAAAA EEE.EEEE FFF.FFFF GGGGGGG HHH.HHHH III.IIII JJ.JJJJJJJJKKKKKZ
 KEY: A-CATALOGNUM B-EPOCHTIME C-DECAY D-ELSETNUM E-INCLINATION F-RAAN
 G-ECCENTRICITY H-ARGPERIGEE I-MNANOM J-MNMOTION K-ORBITNUM Z-CHECKSUM

FO-29
1 24278U 96046B   02121.59699682  .00000023  00000-0  61776-4 0 05103
2 24278 098.5119 308.0477 0350135 256.3080 099.8850 13.52836390281693

 ■ 軌道要素2:「jamsat−keps:1100」より
        SB KEPS @ AMSAT  $ORB02122.O
        Orbital Elements  02122.OSCAR

HR AMSAT ORBITAL ELEMENTS FOR OSCAR SATELLITES
FROM WA5QGD FORT WORTH,TX May 2, 2002
SEND SUBSCRIBE/UNSUBSCRIBE TO majordomo@amsat.org ONLY
BID: ORB02122.O
TO ALL RADIO AMATEURS BT

Satellite: FO-29
Catalog number: 24278
Epoch time:      02121.59699682
Element set:    0510
Inclination:      098.5119 deg
RA of node:       308.0477 deg
Eccentricity:    0.0350135
Arg of perigee:   256.3080 deg
Mean anomaly:     099.8850 deg
Mean motion:   13.52836390 rev/day
Decay rate:        2.3e-07 rev/day^2
Epoch rev:           28169
Checksum:              324

-------------------  FO-29(JAS-2)のテレメトリに関する情報  ---------------------- 
 
2)上記2002年5月7日(火)のテレメトリの最終行を分析しておきます.

AS28247C  07May2002
16:44-16:51(JST)
AOS   MEL  LOS  Elev
 38    86  135  10.5
Freq. 435.798-.790MHz
HI HI AE 07 88 55 00 D4 9A F7 09 0C 57 70 6E 56 8A 8C 9E 5F 91 8C 8F 8F 87 
 
テレメトリ   内 容         換算算値 単 位
3C	磁気センサーZ軸=	42647.0	[nT]
3D	磁気センサX軸	=	54902.0	[nT]
4A	太陽電池発生電流=	 1078.4	[mA]
4B	B充放電電流	=	 -314.4	[mA]
4C	B端子電圧	=	   14.9	[V]
4D	B中間端子電圧	=	    6.7	[V]
5A	バス電圧	=	   15.5	[V]
5B	JTA送信電力	=	  519.4	[mW]
5C 	構体温度1	=	   25.6	[℃]
5D	構体温度2	=	   27.5	[℃]
6A	構体温度3	=	   26.3	[℃]
6B	構体温度4	=	   26.3	[℃]
6C	Bセル温度	=	   29.5	[℃]

 ========================== FO-29(ふじ3号)のテレメトリ分析、QSO情報等 =====================
   
 3)[jamsat-bb:

 =================================================================================================
 
 4)JARL のホームページに運用予定が記載されていましたのでご紹介します.
       ( http://www.jarl.or.jp/Japanese/3_Fuji/new/uy.htm )
       
        *** 運用予定について ***

   4月01日(月) 〜 6月30日(日)アナログ系運用 

  *なお,運用予定は都合により,変更することがありますので,あらかじめご了承願います。

 照会先 : lab@jarl.or.jp

 最新の情報はテレホンサービス(03−3942−1000)をお聞きください。  
 以後の運用につきましては平成14年7月上旬にお知らせいたします。        
     
-----------------------    FO−20(JAS-1b)道要素   -------------------------
  
  ■ 軌道要素1 :出典はFO-29「ふじ3号」に同じ.
  
FO-20
1 20480U 90013C   02122.11303865 -.00000022  00000-0  30423-4 0  3941
2 20480  99.0203 135.3172 0539809 306.7048  48.5598 12.83315765573008
 
  ■ 軌道要素2 :出典はFO−29「ふじ3号」に同じ.
               
Satellite: FO-20
Catalog number: 20480
Epoch time:      02122.11303865
Element set:     394
Inclination:       99.0203 deg
RA of node:       135.3172 deg
Eccentricity:    0.0539809
Arg of perigee:   306.7048 deg
Mean anomaly:      48.5598 deg
Mean motion:   12.83315765 rev/day
Decay rate:       -2.2e-07 rev/day^2
Epoch rev:           57300
Checksum:              284

-------------------------------------------------------------------------------- 
         ■ ふじ2号/FO−20/JAS-1b ■      
            
          「ふじ2号」 現況                                                                                  
             
   JAS-1b(ふじ2号)のCWテレメトリ信号に,1997年10月12日12時(JST)の
 日本上空通過時,3桁の数字が繰り返されるはずが3個の長音の繰り返しとなっているという
 異常が発見されました。この不具合は次の通過時からは回復していましたが13日15時20分の
 通過時に再び観測されました。現在はA0の送信が続いています。衛星のアナログ系中継モード
 動作は異常が無く,正常時のテレメトリ内容からは衛星の動作に異常は認められません。従って,
 直ちに衛星のミッションに影響することは無いと予想されますので,当面はアナログ系中継
 モードを継続します。衛星は既に打ち上げてから7年8ヶ月を経ておりますので,今後は監視を
 強化する予定です。アマチュア各位のレポートをお待ちします。
 -------------------------------------------------------------------------------- 
  1997年10月14日 00時35分 確認のテレメトリ音 151 KB (A0) 
  1997年10月14日 11時10分 確認のテレメトリ音 216 KB (異常キーイング) 

  以上 JARLのホ−ムページの http://www.jarl.or.jp/Japanese/3_Fuji/new/fuji.htm

===================== FO-20 ふじ2号 のテレメトリ観測結果 ====================

  3月8日(金)18:18(JST)の観測結果ではテレメトリは、以前観測した単一周波数の
正弦波がドップラー効果で周波数がずれていくのみの状態でした。
                                         
   =============   JAS-2 (ふじ3号)と現在までの情報   ===========
  
  A.電話によるふじ3号の運用情報
      社団法人日本アマチュア連盟によるサービス
           TEL .   03− 3942 − 1000
  B.アマチュア無線FAXサービス
      JARLによるふじ3号の軌道情報(オービットカレンダー)
         FAX No.  03− 3233 −0055
  C.WWWブラウザで情報を簡単に見れる人のためにJAS−2
     ふじ3号の衛星としての運用されるまでの名前)の概要、打ち上げ
     までの状況、運用中における状況を説明したホームページを紹介し
     ておきます.

     社団法人日本アマチュア無線連盟(JARL)のホームページ

          http://www.jarl.or.jp/Japanese/3_Fuji/jasmenu.htm
 
     宇宙開発事業団(NASDA)ホームページ 
          http://www.nasda.go.jp/
         打上げ衛星 :地球観測プラットフォーム技術衛星(ADEOS) 
                       アマチュア衛星3号(JAS-2)
          http://spaceboy.nasda.go.jp/note/eisei/j/Eis15h_j.html#Eis15h_01_j
     http://spaceboy.nasda.go.jp/note/eisei/j/Eis15i_j.html        

  D.JAMSATによる軌道情報の活用
        JAMSATのホームページまたはjamsat−kepsの軌道要素より
      衛星の軌道情報を得る.
     JAMSATホームページ
               URL    http://www.jamsat.or.jp
       上記ホームページでは各地で行われるアマチュア通信衛星に関する
      ミューティングのお知らせや世界のアマチュア衛星に関する情報が
      満載されています.

 ========================================================================  
     JAMSATのメンバーのご協力によりJH6MME(高山 秀造)が
    執筆・編集を担当しております.ご指摘の意見、疑問やこのようにしたら
    というアイデアがありましたら小さなことでもかまいませんので気軽に下
    記アドレスまでご連絡ください.jamsat−newsからjas2
    infoへの転載をJH4PHW局坂井さんに担当して頂いております.  
                  E-mail : jh6mme@jamsat.or.jp : jh4phw@jamsat.or.jp
 ===============================   END  ===============================